Year,Month,Day,Hour,Minute,Value (Times are PST for windgust in km/hr)
2013,09,26,00,00,3.20
2013,09,26,00,01,3.20
2013,09,26,00,02,1.60
2013,09,26,00,03,1.60
2013,09,26,00,04,3.20
2013,09,26,00,05,1.60
2013,09,26,00,06,1.60
2013,09,26,00,07,1.60
2013,09,26,00,08,1.60
2013,09,26,00,09,3.20
2013,09,26,00,10,3.20
2013,09,26,00,11,3.20
2013,09,26,00,12,3.20
2013,09,26,00,13,1.60
2013,09,26,00,14,1.60
2013,09,26,00,15,3.20
2013,09,26,00,16,3.20
2013,09,26,00,17,1.60
2013,09,26,00,18,1.60
2013,09,26,00,20,3.20
2013,09,26,00,21,3.20
2013,09,26,00,22,1.60
2013,09,26,00,25,1.60
2013,09,26,00,26,1.60
2013,09,26,00,27,1.60
2013,09,26,00,28,1.60
2013,09,26,00,29,3.20
2013,09,26,00,30,4.80
2013,09,26,00,31,3.20
2013,09,26,00,32,3.20
2013,09,26,00,33,3.20
2013,09,26,00,34,3.20
2013,09,26,00,35,3.20
2013,09,26,00,36,3.20
2013,09,26,00,37,3.20
2013,09,26,00,38,1.60
2013,09,26,00,39,1.60
2013,09,26,00,40,1.60
2013,09,26,00,41,1.60
2013,09,26,00,45,1.60
2013,09,26,00,46,1.60
2013,09,26,00,47,1.60
2013,09,26,00,48,1.60
2013,09,26,00,49,3.20
2013,09,26,00,50,1.60
2013,09,26,00,51,1.60
2013,09,26,00,52,1.60
2013,09,26,00,53,1.60
2013,09,26,00,54,1.60
2013,09,26,00,55,1.60
2013,09,26,00,56,1.60
2013,09,26,00,58,1.60
2013,09,26,00,59,1.60
2013,09,26,01,00,1.60
2013,09,26,01,01,1.60
2013,09,26,01,02,3.20
2013,09,26,01,03,3.20
2013,09,26,01,04,3.20
2013,09,26,01,05,3.20
2013,09,26,01,06,1.60
2013,09,26,01,07,1.60
2013,09,26,01,08,1.60
2013,09,26,01,12,1.60
2013,09,26,01,13,1.60
2013,09,26,01,14,1.60
2013,09,26,01,15,1.60
2013,09,26,01,16,1.60
2013,09,26,01,17,1.60
2013,09,26,01,18,1.60
2013,09,26,01,19,1.60
2013,09,26,01,20,1.60
2013,09,26,01,21,3.20
2013,09,26,01,22,1.60
2013,09,26,01,23,1.60
2013,09,26,01,24,3.20
2013,09,26,01,25,1.60
2013,09,26,01,26,1.60
2013,09,26,01,27,1.60
2013,09,26,01,28,1.60
2013,09,26,01,30,1.60
2013,09,26,01,31,1.60
2013,09,26,01,32,1.60
2013,09,26,01,33,1.60
2013,09,26,01,34,3.20
2013,09,26,01,35,3.20
2013,09,26,01,36,3.20
2013,09,26,01,37,1.60
2013,09,26,01,38,1.60
2013,09,26,01,39,1.60
2013,09,26,01,40,1.60
2013,09,26,01,45,1.60
2013,09,26,01,46,1.60
2013,09,26,01,47,1.60
2013,09,26,01,53,1.60
2013,09,26,01,54,1.60
2013,09,26,02,08,1.60
2013,09,26,02,22,1.60
2013,09,26,02,23,1.60
2013,09,26,02,24,1.60
2013,09,26,02,25,1.60
2013,09,26,02,26,3.20
2013,09,26,02,27,1.60
2013,09,26,02,28,1.60
2013,09,26,02,29,1.60
2013,09,26,02,30,3.20
2013,09,26,02,31,1.60
2013,09,26,02,32,3.20
2013,09,26,02,33,1.60
2013,09,26,02,34,1.60
2013,09,26,02,35,1.60
2013,09,26,02,36,1.60
2013,09,26,02,37,1.60
2013,09,26,02,38,1.60
2013,09,26,02,39,1.60
2013,09,26,02,40,1.60
2013,09,26,02,43,1.60
2013,09,26,02,46,1.60
2013,09,26,02,47,1.60
2013,09,26,02,48,1.60
2013,09,26,02,49,1.60
2013,09,26,02,50,4.80
2013,09,26,02,51,3.20
2013,09,26,02,55,1.60
2013,09,26,02,56,1.60
2013,09,26,02,57,1.60
2013,09,26,02,58,1.60
2013,09,26,02,59,1.60
2013,09,26,03,00,1.60
2013,09,26,03,01,1.60
2013,09,26,03,02,1.60
2013,09,26,03,03,1.60
2013,09,26,03,04,3.20
2013,09,26,03,05,1.60
2013,09,26,03,06,1.60
2013,09,26,03,07,1.60
2013,09,26,03,08,1.60
2013,09,26,03,09,3.20
2013,09,26,03,10,3.20
2013,09,26,03,12,1.60
2013,09,26,03,13,4.80
2013,09,26,03,14,1.60
2013,09,26,03,15,1.60
2013,09,26,03,16,1.60
2013,09,26,03,17,1.60
2013,09,26,03,19,3.20
2013,09,26,03,20,1.60
2013,09,26,03,22,1.60
2013,09,26,03,23,3.20
2013,09,26,03,24,3.20
2013,09,26,03,25,1.60
2013,09,26,03,26,3.20
2013,09,26,03,27,3.20
2013,09,26,03,28,1.60
2013,09,26,03,29,1.60
2013,09,26,03,30,3.20
2013,09,26,03,31,4.80
2013,09,26,03,32,4.80
2013,09,26,03,33,3.20
2013,09,26,03,34,3.20
2013,09,26,03,35,3.20
2013,09,26,03,36,3.20
2013,09,26,03,37,3.20
2013,09,26,03,38,3.20
2013,09,26,03,39,3.20
2013,09,26,03,40,3.20
2013,09,26,03,41,4.80
2013,09,26,03,42,3.20
2013,09,26,03,43,3.20
2013,09,26,03,44,4.80
2013,09,26,03,45,4.80
2013,09,26,03,46,4.80
2013,09,26,03,47,4.80
2013,09,26,03,48,3.20
2013,09,26,03,49,3.20
2013,09,26,03,50,3.20
2013,09,26,03,51,1.60
2013,09,26,03,52,1.60
2013,09,26,03,53,1.60
2013,09,26,03,54,1.60
2013,09,26,03,55,3.20
2013,09,26,03,56,3.20
2013,09,26,03,57,3.20
2013,09,26,03,58,3.20
2013,09,26,03,59,3.20
2013,09,26,04,00,1.60
2013,09,26,04,01,1.60
2013,09,26,04,02,1.60
2013,09,26,04,06,1.60
2013,09,26,04,07,1.60
2013,09,26,04,08,1.60
2013,09,26,04,09,1.60
2013,09,26,04,10,1.60
2013,09,26,04,11,3.20
2013,09,26,04,12,3.20
2013,09,26,04,13,3.20
2013,09,26,04,14,3.20
2013,09,26,04,15,3.20
2013,09,26,04,16,3.20
2013,09,26,04,17,3.20
2013,09,26,04,18,3.20
2013,09,26,04,19,1.60
2013,09,26,04,20,1.60
2013,09,26,04,23,1.60
2013,09,26,04,24,1.60
2013,09,26,04,25,1.60
2013,09,26,04,26,1.60
2013,09,26,04,27,3.20
2013,09,26,04,28,3.20
2013,09,26,04,29,3.20
2013,09,26,04,30,3.20
2013,09,26,04,31,3.20
2013,09,26,04,32,1.60
2013,09,26,04,33,1.60
2013,09,26,04,34,3.20
2013,09,26,04,35,3.20
2013,09,26,04,36,1.60
2013,09,26,04,37,1.60
2013,09,26,04,42,1.60
2013,09,26,04,43,1.60
2013,09,26,04,44,1.60
2013,09,26,04,47,1.60
2013,09,26,04,48,1.60
2013,09,26,04,49,1.60
2013,09,26,04,50,1.60
2013,09,26,04,55,1.60
2013,09,26,04,56,1.60
2013,09,26,04,57,1.60
2013,09,26,04,58,1.60
2013,09,26,04,59,1.60
2013,09,26,05,02,1.60
2013,09,26,05,03,1.60
2013,09,26,05,04,1.60
2013,09,26,05,23,1.60
2013,09,26,05,24,1.60
2013,09,26,05,27,1.60
2013,09,26,05,28,1.60
2013,09,26,05,29,1.60
2013,09,26,05,30,1.60
2013,09,26,05,31,1.60
2013,09,26,05,32,1.60
2013,09,26,05,34,1.60
2013,09,26,05,35,1.60
2013,09,26,05,36,1.60
2013,09,26,05,38,1.60
2013,09,26,05,39,1.60
2013,09,26,05,44,1.60
2013,09,26,05,45,1.60
2013,09,26,05,46,1.60
2013,09,26,05,48,1.60
2013,09,26,05,49,3.20
2013,09,26,05,50,1.60
2013,09,26,05,51,1.60
2013,09,26,05,52,1.60
2013,09,26,05,53,1.60
2013,09,26,05,54,1.60
2013,09,26,05,55,1.60
2013,09,26,05,57,1.60
2013,09,26,06,03,3.20
2013,09,26,06,04,3.20
2013,09,26,06,05,1.60
2013,09,26,06,06,1.60
2013,09,26,06,07,1.60
2013,09,26,06,08,1.60
2013,09,26,06,10,3.20
2013,09,26,06,11,3.20
2013,09,26,06,12,1.60
2013,09,26,06,15,1.60
2013,09,26,06,17,1.60
2013,09,26,06,18,1.60
2013,09,26,06,20,3.20
2013,09,26,06,21,1.60
2013,09,26,06,23,1.60
2013,09,26,06,24,1.60
2013,09,26,06,25,1.60
2013,09,26,06,26,3.20
2013,09,26,06,27,1.60
2013,09,26,06,28,1.60
2013,09,26,06,33,1.60
2013,09,26,06,37,4.80
2013,09,26,06,38,4.80
2013,09,26,06,39,4.80
2013,09,26,06,40,3.20
2013,09,26,06,41,1.60
2013,09,26,06,42,1.60
2013,09,26,06,43,1.60
2013,09,26,06,44,1.60
2013,09,26,06,45,1.60
2013,09,26,06,46,1.60
2013,09,26,06,47,1.60
2013,09,26,06,48,1.60
2013,09,26,06,49,1.60
2013,09,26,06,50,1.60
2013,09,26,06,51,1.60
2013,09,26,06,52,1.60
2013,09,26,07,02,1.60
2013,09,26,07,03,1.60
2013,09,26,07,04,1.60
2013,09,26,07,05,1.60
2013,09,26,07,06,1.60
2013,09,26,07,07,1.60
2013,09,26,07,08,1.60
2013,09,26,07,09,3.20
2013,09,26,07,10,3.20
2013,09,26,07,11,1.60
2013,09,26,07,12,3.20
2013,09,26,07,13,3.20
2013,09,26,07,14,1.60
2013,09,26,07,15,3.20
2013,09,26,07,16,1.60
2013,09,26,07,17,1.60
2013,09,26,07,18,1.60
2013,09,26,07,21,1.60
2013,09,26,07,22,1.60
2013,09,26,07,23,3.20
2013,09,26,07,24,1.60
2013,09,26,07,25,1.60
2013,09,26,07,26,1.60
2013,09,26,07,27,3.20
2013,09,26,07,28,3.20
2013,09,26,07,29,3.20
2013,09,26,07,30,3.20
2013,09,26,07,31,3.20
2013,09,26,07,32,3.20
2013,09,26,07,33,3.20
2013,09,26,07,34,1.60
2013,09,26,07,35,1.60
2013,09,26,07,36,1.60
2013,09,26,07,37,1.60
2013,09,26,07,38,1.60
2013,09,26,07,39,3.20
2013,09,26,07,40,3.20
2013,09,26,07,41,3.20
2013,09,26,07,42,3.20
2013,09,26,07,43,3.20
2013,09,26,07,44,3.20
2013,09,26,07,45,3.20
2013,09,26,07,46,3.20
2013,09,26,07,47,1.60
2013,09,26,07,48,1.60
2013,09,26,07,49,1.60
2013,09,26,07,50,1.60
2013,09,26,07,51,1.60
2013,09,26,07,52,1.60
2013,09,26,07,53,1.60
2013,09,26,07,54,1.60
2013,09,26,07,55,3.20
2013,09,26,07,56,1.60
2013,09,26,07,57,1.60
2013,09,26,07,58,1.60
2013,09,26,07,59,1.60
2013,09,26,08,01,1.60
2013,09,26,08,03,1.60
2013,09,26,08,04,1.60
2013,09,26,08,05,1.60
2013,09,26,08,08,1.60
2013,09,26,08,11,1.60
2013,09,26,08,12,1.60
2013,09,26,08,13,1.60
2013,09,26,08,22,1.60
2013,09,26,08,27,1.60
2013,09,26,08,35,1.60
2013,09,26,08,36,1.60
2013,09,26,08,37,1.60
2013,09,26,08,38,1.60
2013,09,26,08,39,1.60
2013,09,26,08,40,1.60
2013,09,26,08,46,1.60
2013,09,26,08,47,1.60
2013,09,26,08,48,1.60
2013,09,26,08,49,1.60
2013,09,26,08,50,1.60
2013,09,26,08,51,3.20
2013,09,26,08,52,4.80
2013,09,26,08,53,3.20
2013,09,26,08,54,4.80
2013,09,26,08,55,3.20
2013,09,26,08,56,3.20
2013,09,26,08,57,4.80
2013,09,26,08,58,4.80
2013,09,26,08,59,4.80
2013,09,26,09,00,6.40
2013,09,26,09,01,6.40
2013,09,26,09,02,4.80
2013,09,26,09,03,6.40
2013,09,26,09,04,6.40
2013,09,26,09,05,4.80
2013,09,26,09,06,4.80
2013,09,26,09,07,6.40
2013,09,26,09,08,3.20
2013,09,26,09,09,4.80
2013,09,26,09,10,4.80
2013,09,26,09,11,4.80
2013,09,26,09,12,4.80
2013,09,26,09,13,4.80
2013,09,26,09,14,6.40
2013,09,26,09,15,4.80
2013,09,26,09,16,6.40
2013,09,26,09,17,4.80
2013,09,26,09,18,3.20
2013,09,26,09,19,4.80
2013,09,26,09,20,4.80
2013,09,26,09,21,3.20
2013,09,26,09,22,3.20
2013,09,26,09,23,1.60
2013,09,26,09,24,3.20
2013,09,26,09,25,1.60
2013,09,26,09,26,4.80
2013,09,26,09,27,3.20
2013,09,26,09,28,1.60
2013,09,26,09,29,3.20
2013,09,26,09,30,4.80
2013,09,26,09,31,3.20
2013,09,26,09,32,1.60
2013,09,26,09,33,1.60
2013,09,26,09,34,3.20
2013,09,26,09,35,1.60
2013,09,26,09,36,1.60
2013,09,26,09,37,1.60
2013,09,26,09,38,1.60
2013,09,26,09,39,1.60
2013,09,26,09,40,1.60
2013,09,26,09,41,3.20
2013,09,26,09,42,1.60
2013,09,26,09,43,3.20
2013,09,26,09,44,3.20
2013,09,26,09,45,4.80
2013,09,26,09,46,3.20
2013,09,26,09,47,4.80
2013,09,26,09,48,4.80
2013,09,26,09,49,6.40
2013,09,26,09,50,4.80
2013,09,26,09,51,4.80
2013,09,26,09,52,6.40
2013,09,26,09,53,4.80
2013,09,26,09,54,4.80
2013,09,26,09,55,6.40
2013,09,26,09,56,6.40
2013,09,26,09,57,4.80
2013,09,26,09,58,4.80
2013,09,26,09,59,4.80
2013,09,26,10,00,3.20
2013,09,26,10,01,4.80
2013,09,26,10,02,8.10
2013,09,26,10,03,4.80
2013,09,26,10,04,8.10
2013,09,26,10,05,4.80
2013,09,26,10,06,3.20
2013,09,26,10,07,4.80
2013,09,26,10,08,4.80
2013,09,26,10,09,4.80
2013,09,26,10,10,6.40
2013,09,26,10,11,9.60
2013,09,26,10,12,9.60
2013,09,26,10,13,8.10
2013,09,26,10,14,6.40
2013,09,26,10,15,9.60
2013,09,26,10,16,4.80
2013,09,26,10,17,6.40
2013,09,26,10,18,6.40
2013,09,26,10,19,8.10
2013,09,26,10,20,6.40
2013,09,26,10,21,11.30
2013,09,26,10,22,8.10
2013,09,26,10,23,4.80
2013,09,26,10,24,6.40
2013,09,26,10,25,4.80
2013,09,26,10,26,4.80
2013,09,26,10,27,4.80
2013,09,26,10,28,6.40
2013,09,26,10,29,9.60
2013,09,26,10,30,9.60
2013,09,26,10,31,6.40
2013,09,26,10,32,14.50
2013,09,26,10,33,8.10
2013,09,26,10,34,8.10
2013,09,26,10,35,8.10
2013,09,26,10,36,8.10
2013,09,26,10,37,4.80
2013,09,26,10,38,4.80
2013,09,26,10,39,6.40
2013,09,26,10,40,8.10
2013,09,26,10,41,6.40
2013,09,26,10,42,9.60
2013,09,26,10,43,9.60
2013,09,26,10,44,9.60
2013,09,26,10,45,8.10
2013,09,26,10,46,3.20
2013,09,26,10,47,6.40
2013,09,26,10,48,8.10
2013,09,26,10,49,4.80
2013,09,26,10,50,6.40
2013,09,26,10,51,4.80
2013,09,26,10,52,3.20
2013,09,26,10,53,3.20
2013,09,26,10,54,8.10
2013,09,26,10,55,6.40
2013,09,26,10,56,6.40
2013,09,26,10,57,4.80
2013,09,26,10,58,9.60
2013,09,26,10,59,9.60
2013,09,26,11,00,11.30
2013,09,26,11,01,6.40
2013,09,26,11,02,8.10
2013,09,26,11,03,8.10
2013,09,26,11,04,9.60
2013,09,26,11,05,8.10
2013,09,26,11,06,8.10
2013,09,26,11,07,9.60
2013,09,26,11,08,8.10
2013,09,26,11,09,8.10
2013,09,26,11,10,8.10
2013,09,26,11,11,8.10
2013,09,26,11,12,8.10
2013,09,26,11,13,6.40
2013,09,26,11,14,4.80
2013,09,26,11,15,8.10
2013,09,26,11,16,9.60
2013,09,26,11,17,9.60
2013,09,26,11,18,6.40
2013,09,26,11,19,6.40
2013,09,26,11,20,8.10
2013,09,26,11,21,8.10
2013,09,26,11,22,8.10
2013,09,26,11,23,8.10
2013,09,26,11,24,8.10
2013,09,26,11,25,4.80
2013,09,26,11,26,8.10
2013,09,26,11,27,4.80
2013,09,26,11,28,8.10
2013,09,26,11,29,6.40
2013,09,26,11,30,6.40
2013,09,26,11,31,6.40
2013,09,26,11,32,8.10
2013,09,26,11,33,9.60
2013,09,26,11,34,9.60
2013,09,26,11,35,11.30
2013,09,26,11,36,8.10
2013,09,26,11,37,9.60
2013,09,26,11,38,8.10
2013,09,26,11,39,11.30
2013,09,26,11,40,11.30
2013,09,26,11,41,6.40
2013,09,26,11,42,9.60
2013,09,26,11,43,8.10
2013,09,26,11,44,8.10
2013,09,26,11,45,8.10
2013,09,26,11,46,9.60
2013,09,26,11,47,11.30
2013,09,26,11,48,9.60
2013,09,26,11,49,11.30
2013,09,26,11,50,14.50
2013,09,26,11,51,6.40
2013,09,26,11,52,4.80
2013,09,26,11,53,8.10
2013,09,26,11,54,8.10
2013,09,26,11,55,6.40
2013,09,26,11,56,4.80
2013,09,26,11,57,9.60
2013,09,26,11,58,6.40
2013,09,26,11,59,8.10
2013,09,26,12,00,8.10
2013,09,26,12,01,9.60
2013,09,26,12,02,14.50
2013,09,26,12,03,6.40
2013,09,26,12,04,4.80
2013,09,26,12,05,8.10
2013,09,26,12,06,8.10
2013,09,26,12,07,8.10
2013,09,26,12,08,8.10
2013,09,26,12,09,8.10
2013,09,26,12,10,6.40
2013,09,26,12,11,8.10
2013,09,26,12,12,8.10
2013,09,26,12,13,6.40
2013,09,26,12,14,8.10
2013,09,26,12,15,6.40
2013,09,26,12,16,8.10
2013,09,26,12,17,4.80
2013,09,26,12,18,8.10
2013,09,26,12,19,6.40
2013,09,26,12,20,8.10
2013,09,26,12,21,6.40
2013,09,26,12,22,6.40
2013,09,26,12,23,8.10
2013,09,26,12,24,11.30
2013,09,26,12,25,12.90
2013,09,26,12,26,6.40
2013,09,26,12,27,9.60
2013,09,26,12,28,6.40
2013,09,26,12,29,6.40
2013,09,26,12,30,4.80
2013,09,26,12,31,9.60
2013,09,26,12,32,8.10
2013,09,26,12,33,6.40
2013,09,26,12,34,4.80
2013,09,26,12,35,4.80
2013,09,26,12,36,6.40
2013,09,26,12,37,8.10
2013,09,26,12,38,9.60
2013,09,26,12,39,11.30
2013,09,26,12,40,11.30
2013,09,26,12,41,6.40
2013,09,26,12,42,6.40
2013,09,26,12,43,6.40
2013,09,26,12,44,4.80
2013,09,26,12,45,4.80
2013,09,26,12,46,4.80
2013,09,26,12,47,4.80
2013,09,26,12,48,4.80
2013,09,26,12,49,4.80
2013,09,26,12,50,9.60
2013,09,26,12,51,9.60
2013,09,26,12,52,4.80
2013,09,26,12,53,4.80
2013,09,26,12,54,8.10
2013,09,26,12,55,6.40
2013,09,26,12,56,6.40
2013,09,26,12,57,11.30
2013,09,26,12,58,8.10
2013,09,26,12,59,8.10
2013,09,26,13,00,8.10
2013,09,26,13,01,4.80
2013,09,26,13,02,8.10
2013,09,26,13,03,6.40
2013,09,26,13,04,6.40
2013,09,26,13,05,4.80
2013,09,26,13,06,3.20
2013,09,26,13,07,8.10
2013,09,26,13,08,9.60
2013,09,26,13,09,4.80
2013,09,26,13,10,4.80
2013,09,26,13,11,4.80
2013,09,26,13,12,8.10
2013,09,26,13,13,8.10
2013,09,26,13,14,8.10
2013,09,26,13,15,6.40
2013,09,26,13,16,3.20
2013,09,26,13,17,11.30
2013,09,26,13,18,9.60
2013,09,26,13,19,6.40
2013,09,26,13,20,4.80
2013,09,26,13,21,6.40
2013,09,26,13,22,8.10
2013,09,26,13,23,12.90
2013,09,26,13,24,11.30
2013,09,26,13,25,9.60
2013,09,26,13,26,11.30
2013,09,26,13,27,8.10
2013,09,26,13,28,8.10
2013,09,26,13,29,8.10
2013,09,26,13,30,9.60
2013,09,26,13,31,16.10
2013,09,26,13,32,14.50
2013,09,26,13,33,16.10
2013,09,26,13,34,12.90
2013,09,26,13,35,14.50
2013,09,26,13,36,14.50
2013,09,26,13,37,11.30
2013,09,26,13,38,14.50
2013,09,26,13,39,14.50
2013,09,26,13,40,9.60
2013,09,26,13,41,11.30
2013,09,26,13,42,9.60
2013,09,26,13,43,8.10
2013,09,26,13,44,8.10
2013,09,26,13,45,8.10
2013,09,26,13,46,8.10
2013,09,26,13,47,8.10
2013,09,26,13,48,6.40
2013,09,26,13,49,8.10
2013,09,26,13,50,6.40
2013,09,26,13,51,6.40
2013,09,26,13,52,8.10
2013,09,26,13,53,8.10
2013,09,26,13,54,4.80
2013,09,26,13,55,8.10
2013,09,26,13,56,8.10
2013,09,26,13,57,4.80
2013,09,26,13,58,14.50
2013,09,26,13,59,9.60
2013,09,26,14,00,14.50
2013,09,26,14,01,16.10
2013,09,26,14,02,11.30
2013,09,26,14,03,17.70
2013,09,26,14,04,14.50
2013,09,26,14,05,19.30
2013,09,26,14,06,9.60
2013,09,26,14,07,14.50
2013,09,26,14,08,14.50
2013,09,26,14,09,14.50
2013,09,26,14,10,17.70
2013,09,26,14,11,17.70
2013,09,26,14,12,16.10
2013,09,26,14,13,17.70
2013,09,26,14,14,14.50
2013,09,26,14,15,12.90
2013,09,26,14,16,16.10
2013,09,26,14,17,14.50
2013,09,26,14,18,16.10
2013,09,26,14,19,16.10
2013,09,26,14,20,16.10
2013,09,26,14,21,17.70
2013,09,26,14,22,17.70
2013,09,26,14,23,16.10
2013,09,26,14,24,11.30
2013,09,26,14,25,11.30
2013,09,26,14,26,9.60
2013,09,26,14,27,12.90
2013,09,26,14,28,14.50
2013,09,26,14,29,17.70
2013,09,26,14,30,19.30
2013,09,26,14,31,20.90
2013,09,26,14,32,19.30
2013,09,26,14,33,19.30
2013,09,26,14,34,19.30
2013,09,26,14,35,17.70
2013,09,26,14,36,16.10
2013,09,26,14,37,17.70
2013,09,26,14,38,14.50
2013,09,26,14,39,17.70
2013,09,26,14,40,16.10
2013,09,26,14,41,17.70
2013,09,26,14,42,17.70
2013,09,26,14,43,16.10
2013,09,26,14,44,16.10
2013,09,26,14,45,16.10
2013,09,26,14,46,14.50
2013,09,26,14,47,16.10
2013,09,26,14,48,14.50
2013,09,26,14,49,11.30
2013,09,26,14,50,12.90
2013,09,26,14,51,17.70
2013,09,26,14,52,17.70
2013,09,26,14,53,17.70
2013,09,26,14,54,11.30
2013,09,26,14,55,11.30
2013,09,26,14,56,11.30
2013,09,26,14,57,14.50
2013,09,26,14,58,9.60
2013,09,26,14,59,11.30
2013,09,26,15,00,8.10
2013,09,26,15,01,11.30
2013,09,26,15,02,16.10
2013,09,26,15,03,14.50
2013,09,26,15,04,8.10
2013,09,26,15,05,14.50
2013,09,26,15,06,9.60
2013,09,26,15,07,12.90
2013,09,26,15,08,11.30
2013,09,26,15,09,11.30
2013,09,26,15,10,16.10
2013,09,26,15,11,17.70
2013,09,26,15,12,16.10
2013,09,26,15,13,16.10
2013,09,26,15,14,12.90
2013,09,26,15,15,12.90
2013,09,26,15,16,16.10
2013,09,26,15,17,17.70
2013,09,26,15,18,11.30
2013,09,26,15,19,11.30
2013,09,26,15,20,11.30
2013,09,26,15,21,11.30
2013,09,26,15,22,9.60
2013,09,26,15,23,11.30
2013,09,26,15,24,9.60
2013,09,26,15,25,14.50
2013,09,26,15,26,8.10
2013,09,26,15,27,6.40
2013,09,26,15,28,17.70
2013,09,26,15,29,8.10
2013,09,26,15,30,17.70
2013,09,26,15,31,12.90
2013,09,26,15,32,16.10
2013,09,26,15,33,11.30
2013,09,26,15,34,16.10
2013,09,26,15,35,20.90
2013,09,26,15,36,16.10
2013,09,26,15,37,16.10
2013,09,26,15,38,14.50
2013,09,26,15,39,20.90
2013,09,26,15,40,17.70
2013,09,26,15,41,16.10
2013,09,26,15,42,19.30
2013,09,26,15,43,17.70
2013,09,26,15,44,17.70
2013,09,26,15,45,14.50
2013,09,26,15,46,11.30
2013,09,26,15,47,11.30
2013,09,26,15,48,11.30
2013,09,26,15,49,12.90
2013,09,26,15,50,11.30
2013,09,26,15,51,9.60
2013,09,26,15,52,14.50
2013,09,26,15,53,8.10
2013,09,26,15,54,9.60
2013,09,26,15,55,8.10
2013,09,26,15,56,9.60
2013,09,26,15,57,9.60
2013,09,26,15,58,9.60
2013,09,26,15,59,9.60
2013,09,26,16,00,16.10
2013,09,26,16,01,9.60
2013,09,26,16,02,16.10
2013,09,26,16,03,14.50
2013,09,26,16,04,14.50
2013,09,26,16,05,14.50
2013,09,26,16,06,16.10
2013,09,26,16,07,12.90
2013,09,26,16,08,11.30
2013,09,26,16,09,12.90
2013,09,26,16,10,11.30
2013,09,26,16,11,16.10
2013,09,26,16,12,16.10
2013,09,26,16,13,12.90
2013,09,26,16,14,9.60
2013,09,26,16,15,9.60
2013,09,26,16,16,11.30
2013,09,26,16,17,11.30
2013,09,26,16,18,11.30
2013,09,26,16,19,9.60
2013,09,26,16,20,12.90
2013,09,26,16,21,6.40
2013,09,26,16,22,11.30
2013,09,26,16,23,11.30
2013,09,26,16,24,11.30
2013,09,26,16,25,14.50
2013,09,26,16,26,8.10
2013,09,26,16,27,9.60
2013,09,26,16,28,11.30
2013,09,26,16,29,9.60
2013,09,26,16,30,9.60
2013,09,26,16,31,11.30
2013,09,26,16,32,11.30
2013,09,26,16,33,8.10
2013,09,26,16,34,11.30
2013,09,26,16,35,9.60
2013,09,26,16,36,14.50
2013,09,26,16,37,11.30
2013,09,26,16,38,9.60
2013,09,26,16,39,11.30
2013,09,26,16,40,11.30
2013,09,26,16,41,11.30
2013,09,26,16,42,14.50
2013,09,26,16,43,9.60
2013,09,26,16,44,14.50
2013,09,26,16,45,11.30
2013,09,26,16,46,11.30
2013,09,26,16,47,9.60
2013,09,26,16,48,11.30
2013,09,26,16,49,6.40
2013,09,26,16,50,8.10
2013,09,26,16,51,9.60
2013,09,26,16,52,9.60
2013,09,26,16,53,9.60
2013,09,26,16,54,4.80
2013,09,26,16,55,9.60
2013,09,26,16,56,8.10
2013,09,26,16,57,8.10
2013,09,26,16,58,11.30
2013,09,26,16,59,8.10
2013,09,26,17,00,8.10
2013,09,26,17,01,6.40
2013,09,26,17,02,8.10
2013,09,26,17,03,9.60
2013,09,26,17,04,6.40
2013,09,26,17,05,6.40
2013,09,26,17,06,8.10
2013,09,26,17,07,8.10
2013,09,26,17,08,11.30
2013,09,26,17,09,8.10
2013,09,26,17,10,6.40
2013,09,26,17,11,8.10
2013,09,26,17,12,8.10
2013,09,26,17,13,11.30
2013,09,26,17,14,9.60
2013,09,26,17,15,9.60
2013,09,26,17,16,8.10
2013,09,26,17,17,6.40
2013,09,26,17,18,12.90
2013,09,26,17,19,6.40
2013,09,26,17,20,6.40
2013,09,26,17,21,6.40
2013,09,26,17,22,6.40
2013,09,26,17,23,9.60
2013,09,26,17,24,11.30
2013,09,26,17,25,9.60
2013,09,26,17,26,9.60
2013,09,26,17,27,9.60
2013,09,26,17,28,9.60
2013,09,26,17,29,6.40
2013,09,26,17,30,8.10
2013,09,26,17,31,8.10
2013,09,26,17,32,9.60
2013,09,26,17,33,6.40
2013,09,26,17,34,6.40
2013,09,26,17,35,8.10
2013,09,26,17,36,6.40
2013,09,26,17,37,9.60
2013,09,26,17,38,6.40
2013,09,26,17,39,8.10
2013,09,26,17,40,8.10
2013,09,26,17,41,8.10
2013,09,26,17,42,8.10
2013,09,26,17,43,8.10
2013,09,26,17,44,8.10
2013,09,26,17,45,8.10
2013,09,26,17,46,6.40
2013,09,26,17,47,6.40
2013,09,26,17,48,4.80
2013,09,26,17,49,4.80
2013,09,26,17,50,8.10
2013,09,26,17,51,6.40
2013,09,26,17,52,4.80
2013,09,26,17,53,4.80
2013,09,26,17,54,6.40
2013,09,26,17,55,6.40
2013,09,26,17,56,4.80
2013,09,26,17,57,4.80
2013,09,26,17,58,6.40
2013,09,26,17,59,6.40
2013,09,26,18,00,4.80
2013,09,26,18,01,4.80
2013,09,26,18,02,4.80
2013,09,26,18,03,4.80
2013,09,26,18,04,4.80
2013,09,26,18,05,4.80
2013,09,26,18,06,4.80
2013,09,26,18,07,4.80
2013,09,26,18,08,6.40
2013,09,26,18,09,6.40
2013,09,26,18,10,4.80
2013,09,26,18,11,4.80
2013,09,26,18,12,6.40
2013,09,26,18,13,4.80
2013,09,26,18,14,4.80
2013,09,26,18,15,4.80
2013,09,26,18,16,8.10
2013,09,26,18,17,6.40
2013,09,26,18,18,6.40
2013,09,26,18,19,4.80
2013,09,26,18,20,6.40
2013,09,26,18,21,8.10
2013,09,26,18,22,9.60
2013,09,26,18,23,8.10
2013,09,26,18,24,6.40
2013,09,26,18,25,6.40
2013,09,26,18,26,6.40
2013,09,26,18,27,3.20
2013,09,26,18,28,6.40
2013,09,26,18,29,4.80
2013,09,26,18,30,4.80
2013,09,26,18,31,4.80
2013,09,26,18,32,3.20
2013,09,26,18,33,4.80
2013,09,26,18,34,3.20
2013,09,26,18,35,3.20
2013,09,26,18,36,3.20
2013,09,26,18,37,3.20
2013,09,26,18,38,3.20
2013,09,26,18,39,3.20
2013,09,26,18,40,3.20
2013,09,26,18,41,3.20
2013,09,26,18,42,3.20
2013,09,26,18,43,3.20
2013,09,26,18,44,1.60
2013,09,26,18,45,1.60
2013,09,26,18,46,1.60
2013,09,26,18,47,1.60
2013,09,26,18,48,1.60
2013,09,26,18,49,1.60
2013,09,26,18,50,1.60
2013,09,26,18,51,3.20
2013,09,26,18,52,3.20
2013,09,26,18,53,3.20
2013,09,26,18,54,3.20
2013,09,26,18,55,3.20
2013,09,26,18,56,1.60
2013,09,26,18,58,1.60
2013,09,26,18,59,1.60
2013,09,26,19,00,1.60
2013,09,26,19,01,1.60
2013,09,26,19,02,1.60
2013,09,26,19,03,1.60
2013,09,26,19,04,1.60
2013,09,26,19,06,1.60
2013,09,26,19,07,1.60
2013,09,26,19,10,1.60
2013,09,26,19,12,1.60
2013,09,26,19,18,1.60
2013,09,26,19,19,1.60
2013,09,26,19,20,1.60
2013,09,26,19,21,1.60
2013,09,26,19,22,1.60
2013,09,26,19,23,1.60
2013,09,26,19,24,1.60
2013,09,26,19,25,1.60
2013,09,26,19,26,1.60
2013,09,26,19,27,1.60
2013,09,26,19,28,1.60
2013,09,26,19,29,1.60
2013,09,26,19,30,3.20
2013,09,26,19,31,3.20
2013,09,26,19,32,1.60
2013,09,26,19,33,3.20
2013,09,26,19,34,3.20
2013,09,26,19,35,1.60
2013,09,26,19,36,3.20
2013,09,26,19,37,3.20
2013,09,26,19,38,1.60
2013,09,26,19,39,1.60
2013,09,26,19,40,1.60
2013,09,26,19,44,1.60
2013,09,26,19,45,1.60
2013,09,26,19,46,1.60
2013,09,26,19,47,1.60
2013,09,26,19,48,1.60
2013,09,26,19,49,3.20
2013,09,26,19,50,3.20
2013,09,26,19,51,3.20
2013,09,26,19,52,1.60
2013,09,26,19,53,1.60
2013,09,26,19,54,1.60
2013,09,26,19,55,3.20
2013,09,26,19,56,3.20
2013,09,26,19,57,1.60
2013,09,26,19,58,1.60
2013,09,26,19,59,1.60
2013,09,26,20,00,1.60
2013,09,26,20,01,1.60
2013,09,26,20,02,1.60
2013,09,26,20,03,3.20
2013,09,26,20,04,3.20
2013,09,26,20,05,3.20
2013,09,26,20,06,3.20
2013,09,26,20,07,1.60
2013,09,26,20,08,3.20
2013,09,26,20,09,4.80
2013,09,26,20,10,4.80
2013,09,26,20,11,3.20
2013,09,26,20,12,3.20
2013,09,26,20,13,3.20
2013,09,26,20,14,3.20
2013,09,26,20,15,3.20
2013,09,26,20,16,3.20
2013,09,26,20,17,1.60
2013,09,26,20,18,1.60
2013,09,26,20,19,3.20
2013,09,26,20,20,3.20
2013,09,26,20,21,3.20
2013,09,26,20,22,3.20
2013,09,26,20,23,4.80
2013,09,26,20,24,3.20
2013,09,26,20,25,3.20
2013,09,26,20,26,3.20
2013,09,26,20,27,4.80
2013,09,26,20,28,4.80
2013,09,26,20,29,1.60
2013,09,26,20,30,1.60
2013,09,26,20,31,1.60
2013,09,26,20,32,3.20
2013,09,26,20,33,1.60
2013,09,26,20,34,1.60
2013,09,26,20,35,1.60
2013,09,26,20,36,1.60
2013,09,26,20,37,1.60
2013,09,26,20,38,1.60
2013,09,26,20,39,1.60
2013,09,26,20,40,1.60
2013,09,26,20,41,3.20
2013,09,26,20,42,3.20
2013,09,26,20,43,3.20
2013,09,26,20,44,4.80
2013,09,26,20,45,4.80
2013,09,26,20,46,4.80
2013,09,26,20,47,4.80
2013,09,26,20,48,3.20
2013,09,26,20,49,4.80
2013,09,26,20,50,4.80
2013,09,26,20,51,3.20